0 HST 1 20580U 90037B 26173.68477009 .00005473 00000-0 17108-3 0 9993 2 20580 28.4724 43.0006 0001526 203.6425 156.4101 15.30802244789419 0 ISS (ZARYA) 1 25544U 98067A 26173.73662978 .00008151 00000-0 15395-3 0 9998 2 25544 51.6325 272.6245 0004456 218.9710 141.0958 15.49373286572616 0 CXO 1 25867U 99040B 26174.66694589 .00000425 00000-0 00000-0 0 9994 2 25867 56.2626 116.4520 7822537 310.2350 0.3190 0.37805674 17342